Dothan, AL

7:44 AM CDT on April 27, 2017 (GMT -0500)
Dothan Regional

Weather History for KDHN - September, 2013

Change the Weather History Date:

Monday, September 2, 2013

  Actual Average Record
Temperature  
Mean Temperature 80 °F 80 °F  
Max Temperature 89 °F 90 °F 99 °F (1957)
Min Temperature 70 °F 69 °F 33 °F (1996)
Degree Days  
Heating Degree Days 0 0  
Month to date heating degree days 0  
Since 1 July heating degree days 0  
Cooling Degree Days 14 15  
Month to date cooling degree days 30  
Year to date cooling degree days 1910  
Growing Degree Days 28 (Base 50)    
Moisture  
Dew Point 72 °F    
Average Humidity 85    
Maximum Humidity 100    
Minimum Humidity 62    
Precipitation  
Precipitation 0.00 in 0.16 in 1.70 in (2001)
Month to date precipitation 0.00 0.30  
Year to date precipitation 57.84 38.69  
Sea Level Pressure  
Sea Level Pressure 29.98 in    
Wind  
Wind Speed 4 mph (SW)    
Max Wind Speed 23 mph    
Max Gust Speed 34 mph    
Visibility 10 miles    
Events Rain , Thunderstorm    
T = Trace of Precipitation, MM = Missing Value Source: NWS Daily Summary

Daily Weather History Graph

Daily Weather History Graph

Search for Another Location

Airport or City:

Trip Planner

Search our weather history database for the weather conditions in past years. The results will help you decide how hot, cold, wet, or windy it might be!

Date:

Astronomy

Sep. 02, 2013 Rise Set
Actual Time 6:18 AM CDT 7:03 PM CDT
Civil Twilight 5:53 AM CDT 7:28 PM CDT
Nautical Twilight 5:24 AM CDT 7:57 PM CDT
Astronomical Twilight 4:54 AM CDT 8:27 PM CDT
Moon 3:41 AM CDT (9/2) 5:12 PM CDT (9/2)
Length of Visible Light 13h 34m
Length of Day
12h 45m
Waning Crescent, 8% of the Moon is Illuminated
Sep 2
Waning Crescent
Sep 5
New
Sep 12
First Quarter
Sep 19
Full
Sep 26
Last Quarter

Hourly Weather History & Observations

Time (CDT) Temp. Heat Index Dew Point Humidity Pressure Visibility Wind Dir Wind Speed Gust Speed Precip Events Conditions
12:53 AM 73.0 °F - 71.1 °F 93% 29.96 in 10.0 mi Calm Calm - N/A   Clear
1:53 AM 72.0 °F - 70.0 °F 93% 29.96 in 10.0 mi SSW 4.6 mph - N/A   Clear
2:53 AM 71.1 °F - 70.0 °F 96% 29.96 in 10.0 mi Calm Calm - N/A   Clear
3:53 AM 70.0 °F - 69.1 °F 97% 29.96 in 10.0 mi Calm Calm - N/A   Clear
4:53 AM 71.1 °F - 69.1 °F 93% 29.95 in 10.0 mi SW 3.5 mph - N/A   Clear
5:53 AM 71.1 °F - 69.1 °F 93% 29.96 in 10.0 mi Calm Calm - N/A   Clear
6:31 AM 71.6 °F - 69.8 °F 94% 29.98 in 10.0 mi Calm Calm - N/A   Scattered Clouds
6:40 AM 71.6 °F - 69.8 °F 94% 29.99 in 10.0 mi Calm Calm - N/A   Mostly Cloudy
6:53 AM 73.0 °F - 70.0 °F 90% 29.99 in 10.0 mi Calm Calm - N/A   Overcast
7:40 AM 73.4 °F - 73.4 °F 100% 30.01 in 7.0 mi West 4.6 mph - N/A   Overcast
7:53 AM 75.0 °F - 73.0 °F 94% 29.99 in 6.0 mi West 4.6 mph - N/A   Overcast
8:53 AM 78.1 °F - 75.0 °F 90% 30.01 in 10.0 mi WSW 4.6 mph - N/A   Overcast
9:53 AM 81.0 °F 87.3 °F 75.9 °F 85% 30.01 in 10.0 mi West 8.1 mph - N/A   Overcast
10:20 AM 82.4 °F 89.5 °F 75.2 °F 79% 30.03 in 10.0 mi WNW 8.1 mph - N/A   Mostly Cloudy
10:49 AM 84.2 °F 92.3 °F 75.2 °F 74% 30.04 in 10.0 mi Variable 3.5 mph - N/A   Mostly Cloudy
10:53 AM 84.9 °F 93.3 °F 75.0 °F 72% 30.03 in 10.0 mi West 5.8 mph - N/A   Mostly Cloudy
11:29 AM 87.8 °F 95.6 °F 73.4 °F 62% 30.03 in 10.0 mi NW 4.6 mph - N/A   Scattered Clouds
11:53 AM 87.1 °F 95.4 °F 73.9 °F 65% 30.00 in 10.0 mi WNW 9.2 mph - N/A   Scattered Clouds
12:53 PM 87.1 °F 96.3 °F 75.0 °F 67% 29.97 in 10.0 mi North 9.2 mph - N/A   Mostly Cloudy
1:53 PM 87.1 °F 96.3 °F 75.0 °F 67% 29.95 in 10.0 mi ENE 4.6 mph - N/A   Clear
2:27 PM 87.8 °F 97.6 °F 75.2 °F 66% 29.97 in 10.0 mi ESE 4.6 mph - N/A Thunderstorm Partly Cloudy
2:41 PM 84.2 °F 92.3 °F 75.2 °F 74% 29.97 in 10.0 mi East 8.1 mph - N/A Thunderstorm Thunderstorm
2:53 PM 82.9 °F 90.2 °F 75.0 °F 77% 29.95 in 10.0 mi SE 15.0 mph 20.7 mph N/A Thunderstorm Overcast
3:19 PM 75.2 °F - 71.6 °F 89% 29.99 in 10.0 mi South 23.0 mph 34.5 mph 0.00 in Rain , Thunderstorm Light Thunderstorms and Rain
3:53 PM 73.9 °F - 70.0 °F 87% 29.94 in 10.0 mi South 3.5 mph - 0.00 in   Scattered Clouds
4:53 PM 79.0 °F - 68.0 °F 69% 29.92 in 10.0 mi WSW 5.8 mph - N/A   Clear
5:53 PM 79.0 °F - 69.1 °F 72% 29.93 in 10.0 mi WSW 4.6 mph - N/A   Clear
6:53 PM 75.9 °F - 71.1 °F 85% 29.96 in 10.0 mi South 3.5 mph - N/A   Clear
7:53 PM 75.0 °F - 72.0 °F 90% 29.96 in 10.0 mi SSW 5.8 mph - N/A   Clear
8:53 PM 73.9 °F - 73.0 °F 97% 29.96 in 10.0 mi SSW 3.5 mph - N/A   Clear
9:53 PM 73.9 °F - 73.0 °F 97% 29.98 in 10.0 mi WSW 3.5 mph - N/A   Clear
10:53 PM 73.9 °F - 72.0 °F 93% 29.97 in 9.0 mi SW 3.5 mph - N/A   Clear
11:53 PM 73.0 °F - 72.0 °F 96% 29.96 in 8.0 mi SW 4.6 mph - N/A   Clear